Content
SEND FEEDBACK

Daily
Averages
Monthly
Summary
United States of America

AGAT, GUAM


Home > North America > United States > Guam
Elevation: 110 meters     Latitude: 13 33N     Longitude: 144 50E

WEATHER
 
SELECT A DAY
Number of Records: 208,892;   Date Range: 1/1/95 - 7/22/14
 
SHARE

PRINT THIS DATA

[ ← Previous Day ]
WEATHER ALMANAC - 1 NOVEMBER, 2013
[ Next Day → ]
[ °F ]   °C
Weather ElementAverageHighLow
Temperature28.2 °C31 °C (11:13 am)26.7 °C (1:54 am)
Dewpoint24.7 °C26.1 °C (12:54 pm)23.9 °C (2:54 pm)
Humidity81.8 %94 % (12:02 pm)66 % (2:49 pm)
Barometer1011.5 hPa1012.9 hPa (8:54 am)1009.8 hPa (2:54 pm)
Wind Speed17.5 km/h27.8 km/h (11:13 am)
Wind Gust46.3 km/h (11:54 am)
Weather ElementAverage
Visibility15.1 km
Wind DirectionENE (76.6 °)

Weather ElementTotal
Precipitation5.33 mm
Cooling Degree Days10.6 (Base 18.3)
Growing Degree Days18.9 (Base 10)
Averaged from 32 records on 1 November, 2013
WEATHER CONDITIONS BREAKOUT
WIND DIRECTION BREAKOUT
WEATHER BY HOUR - 1 NOVEMBER, 2013
[ °F ]   °C
Local TimeTemperatureDewpointHumidityBarometerVisibilityWind DirectionWind SpeedGust SpeedPrecipitationEventsConditions
1:54 AM26.7 °C25 °C90 %1011.5 hPa16.1 kmEast (90°)13 km/hClear
2:31 AM27 °C25 °C89 %1011.9 hPa16.1 kmEast (80°)14.8 km/hMostly Cloudy
2:41 AM27 °C24 °C84 %1011.9 hPa16.1 kmEast (90°)11.1 km/hMostly Cloudy
2:54 AM26.7 °C25 °C90 %1011.2 hPa16.1 kmEast (90°)9.3 km/hMostly Cloudy
3:54 AM27.2 °C24.4 °C85 %1011.2 hPa16.1 kmEast (90°)14.8 km/h0 mmPartly Cloudy
4:54 AM26.7 °C24.4 °C87 %1010.8 hPa16.1 kmEast (80°)11.1 km/hPartly Cloudy
5:54 AM26.7 °C24.4 °C87 %1011.2 hPa16.1 kmENE (70°)9.3 km/hPartly Cloudy
6:54 AM27.2 °C25 °C88 %1011.9 hPa16.1 kmENE (70°)13 km/hScattered Clouds
7:54 AM28.3 °C25.6 °C85 %1012.2 hPa16.1 kmEast (80°)13 km/hClear
8:54 AM27.8 °C25.6 °C88 %1012.9 hPa11.3 kmESE (110°)13 km/h0 mmRainLight Rain
9:54 AM29.4 °C25 °C77 %1012.9 hPa16.1 kmEast (90°)24.1 km/h35.2 km/h0 mmScattered Clouds
10:54 AM30 °C24.4 °C72 %1012.5 hPa16.1 kmEast (90°)22.2 km/h37 km/hScattered Clouds
11:13 AM31 °C25 °C70 %1012.9 hPa16.1 kmENE (70°)27.8 km/h37 km/hMostly Cloudy
11:21 AM31 °C25 °C70 %1012.9 hPa16.1 kmEast (80°)25.9 km/h37 km/hScattered Clouds
11:54 AM27.8 °C25 °C85 %1012.2 hPa8 kmNE (50°)27.8 km/h46.3 km/h0 mmRainLight Rain
12:02 PM27 °C26 °C94 %1012.5 hPa9.7 kmENE (70°)20.4 km/h0 mmRainLight Rain
12:12 PM27 °C24 °C84 %1012.5 hPa4 kmEast (90°)13 km/h31.5 km/h1.52 mmRainLight Rain
12:19 PM27 °C25 °C89 %1012.5 hPa16.1 kmEast (90°)13 km/h1.52 mmMostly Cloudy
12:54 PM28.9 °C26.1 °C85 %1010.8 hPa16.1 kmENE (70°)25.9 km/h37 km/h2.29 mmScattered Clouds
1:54 PM30 °C25.6 °C77 %1010.2 hPa16.1 kmENE (70°)20.4 km/h31.5 km/hPartly Cloudy
2:36 PM29 °C24 °C74 %1010.8 hPa16.1 kmEast (80°)18.5 km/h35.2 km/hMostly Cloudy
2:49 PM31 °C24 °C66 %1010.5 hPa16.1 kmENE (70°)24.1 km/hPartly Cloudy
2:54 PM30 °C23.9 °C70 %1009.8 hPa16.1 kmEast (90°)24.1 km/hPartly Cloudy
3:54 PM30 °C23.9 °C70 %1010.2 hPa16.1 kmEast (80°)25.9 km/hPartly Cloudy
4:54 PM29.4 °C23.9 °C72 %1010.2 hPa16.1 kmENE (60°)25.9 km/hPartly Cloudy
5:54 PM28.3 °C24.4 °C79 %1010.5 hPa16.1 kmENE (70°)14.8 km/hPartly Cloudy
6:54 PM27.8 °C24.4 °C82 %1011.2 hPa16.1 kmENE (60°)14.8 km/hScattered Clouds
7:54 PM27.8 °C24.4 °C82 %1011.9 hPa16.1 kmENE (60°)14.8 km/hPartly Cloudy
8:54 PM27.2 °C25 °C88 %1012.9 hPa16.1 kmENE (70°)13 km/h0 mmScattered Clouds
9:54 PM27.2 °C24.4 °C85 %1012.5 hPa16.1 kmENE (70°)14.8 km/hPartly Cloudy
10:54 PM27.2 °C24.4 °C85 %1012.2 hPa16.1 kmENE (60°)14.8 km/hPartly Cloudy
11:54 PM27.2 °C25 °C88 %1011.9 hPa16.1 kmENE (60°)13 km/hPartly Cloudy
Hourly data recorded from PGUM, located 0 kilometers away from Agat, Guam







STORIES FROM OUR PARTNERS